Tracking 23731 objects as of 26-Sep-2021
HD Live streaming from Space Station
objects crossing your sky now

STARLINK-2707

Track STARLINK-2707 now!
10-day predictions
STARLINK-2707 is classified as:


NORAD ID: 48669
Int'l Code: 2021-044AH
Perigee: 552.8 km
Apogee: 555.9 km
Inclination: 53.0 °
Period: 95.6 minutes
Semi major axis: 6925 km
RCS: Unknown
Launch date: May 26, 2021
Source: United States (US)
Launch site: AIR FORCE EASTERN TEST RANGE (AFETR)
aabbcc
Your satellite tracking list
Your tracking list is empty




NASA's NSSDC Master Catalog

Two Line Element Set (TLE):
1 48669U 21044AH  21268.53625763 -.00000809  00000-0 -35397-4 0  9990
2 48669  53.0480 211.7268 0002189  69.7537 290.3688 15.06403324 18743
Source of the keplerian elements: AFSPC